Date,TemperatureHighF,TemperatureAvgF,TemperatureLowF,DewpointHighF,DewpointAvgF,DewpointLowF,HumidityHigh,HumidityAvg,HumidityLow,PressureMaxIn,PressureMinIn,WindSpeedMaxMPH,WindSpeedAvgMPH,GustSpeedMaxMPH,PrecipitationSumIn
2013-2-1,73.8,55.0,41.9,38.9,30.5,14.4,80,47,11,30.12,29.99,8,1,11,0.00
2013-2-2,76.1,57.2,38.5,46.0,40.2,33.5,82,58,25,30.06,29.91,8,1,14,0.00
2013-2-3,74.3,56.8,42.1,50.4,42.2,36.7,85,61,34,29.96,29.83,12,2,17,0.07
2013-2-4,73.8,53.9,37.9,52.4,38.7,28.1,94,64,20,29.91,29.80,11,1,17,0.00
2013-2-5,78.1,59.0,39.4,53.2,45.8,37.0,93,66,34,29.87,29.76,12,1,17,0.00
2013-2-6,79.2,67.0,54.0,62.4,56.8,50.5,91,72,46,29.89,29.79,10,2,15,0.00
2013-2-7,81.0,72.1,63.9,64.4,61.0,55.4,87,70,47,29.85,29.63,14,6,20,0.00
2013-2-8,83.7,71.0,58.3,64.2,58.1,49.2,91,67,33,29.92,29.64,11,4,16,0.00
2013-2-9,77.2,64.1,54.5,56.9,54.1,51.7,95,73,42,29.97,29.84,10,3,15,0.00
2013-2-10,79.5,67.8,59.0,58.5,56.5,53.7,85,69,46,30.04,29.93,13,4,17,0.00
2013-2-11,61.3,60.4,57.6,57.1,56.1,54.5,90,86,82,29.97,29.92,3,1,5,0.00
2013-2-12,85.3,75.9,70.2,67.2,64.1,60.6,90,68,45,29.74,29.70,8,4,11,0.07
2013-2-13,87.6,74.2,63.9,70.6,65.5,57.1,93,76,45,29.75,29.60,16,6,26,0.27
2013-2-14,66.0,62.8,60.3,61.2,59.1,57.2,95,88,79,29.81,29.70,7,1,10,0.39
2013-2-15,72.7,60.8,55.8,59.0,56.0,53.7,97,85,57,29.85,29.72,6,2,9,0.07
2013-2-16,70.7,57.7,48.4,54.1,45.0,26.6,94,66,33,29.89,29.67,21,5,29,0.15
2013-2-17,56.1,46.9,34.3,29.6,19.2,10.9,78,37,18,30.10,29.88,11,4,19,0.00
2013-2-18,70.9,50.9,30.6,47.9,37.2,26.9,90,63,34,30.12,29.98,14,3,27,0.00
2013-2-19,79.9,61.9,44.8,56.1,49.5,42.7,94,68,39,29.98,29.83,14,3,21,0.41
2013-2-20,79.5,65.5,54.5,63.5,56.7,51.3,94,75,50,29.90,29.78,7,2,11,0.00
2013-2-21,84.7,70.7,59.9,65.4,59.2,54.4,88,69,42,29.88,29.76,10,3,14,0.00
2013-2-22,86.4,73.7,59.4,69.4,63.9,57.3,95,74,43,29.86,29.75,15,4,20,0.00
2013-2-23,88.7,76.5,69.4,70.2,66.1,61.1,93,73,41,29.79,29.65,16,5,24,0.02
2013-2-24,81.1,72.5,67.1,70.6,67.5,64.4,94,85,64,29.74,29.65,10,3,13,0.00
2013-2-25,87.6,73.7,63.5,72.4,63.7,59.3,96,74,41,29.70,29.53,13,2,17,0.00
2013-2-26,79.0,72.1,63.3,72.7,67.3,60.8,92,85,73,29.65,29.51,18,5,24,0.13
2013-2-27,77.9,66.3,56.1,62.8,55.8,49.7,96,72,38,29.74,29.64,10,3,14,0.01
2013-2-28,75.7,63.9,48.2,55.0,47.4,42.4,94,60,33,29.77,29.65,14,4,20,0.00